FW5749 Sugarloaf Key FL US current weather conditions

sailwx.info

Wind from 015 at 11 knots gusting 17

Air temperature 17.8° C
Dewpoint 11.3° C

Last reported at 2020-Jan-21 06:01 UTC.
Time now 2020-Jan-21 06:28 UTC

Location: N 24°38' W 081°33'.
View on Google Maps.

See reports from other nearby stations

  
Tides and Currents Weather Stations Pressure Air Temp Water Temp Dewpoint Dewpoint Depression Visibility Wind Speed Wind Dir Waves Ship Positions
date/time (UTC)wind fromknots sea level pressurealtimeterstation pressurevisibilityair tempwater tempwave heightnotes
2020-Jan-21 06:05 013 9 gusting 17 17.8
2020-Jan-21 06:01 015 11 gusting 17 17.8
2020-Jan-21 05:55 024 10 gusting 16 17.8
2020-Jan-21 05:50 326 8 gusting 13 18.3
2020-Jan-21 05:47 013 9 gusting 15 18.3
2020-Jan-21 05:41 019 9 gusting 15 18.3
2020-Jan-21 05:35 020 10 gusting 15 18.3
2020-Jan-21 05:31 005 9 gusting 15 18.3
2020-Jan-21 05:25 360 9 gusting 15 18.3
2020-Jan-21 05:20 013 9 gusting 16 18.3
2020-Jan-21 05:17 032 10 gusting 16 18.3
2020-Jan-21 05:10 022 9 gusting 18 18.3
2020-Jan-21 05:06 028 9 gusting 18 18.3
2020-Jan-21 05:02 022 10 gusting 16 18.3
2020-Jan-21 04:55 025 8 gusting 18 18.9
2020-Jan-21 04:50 024 12 gusting 18 18.9
2020-Jan-21 04:46 032 10 gusting 16 18.9
2020-Jan-21 04:40 026 9 gusting 15 18.9
2020-Jan-21 04:35 019 9 gusting 16 18.9
2020-Jan-21 04:33 030 11 gusting 16 18.9
2020-Jan-21 04:26 005 10 gusting 16 18.9
2020-Jan-21 04:21 360 10 gusting 16 18.9
2020-Jan-21 04:16 015 10 gusting 17 19.4
2020-Jan-21 04:10 360 10 gusting 17 19.4
2020-Jan-21 04:05 005 10 gusting 18 19.4
2020-Jan-21 04:02 005 11 gusting 18 19.4
2020-Jan-21 03:56 024 10 gusting 18 19.4
2020-Jan-21 03:50 360 9 gusting 17 19.4
2020-Jan-21 03:47 034 9 gusting 16 19.4
2020-Jan-21 03:40 360 11 gusting 16 19.4
2020-Jan-21 03:35 355 10 gusting 17 20.0
2020-Jan-21 03:32 017 10 gusting 19 20.0
2020-Jan-21 03:25 026 11 gusting 19 20.0
2020-Jan-21 03:20 038 11 gusting 19 20.0
2020-Jan-21 03:19 352 11 gusting 19 20.0
2020-Jan-21 03:11 350 10 gusting 15 20.0
2020-Jan-21 03:06 005 11 gusting 19 20.0
2020-Jan-21 03:02 360 12 gusting 19 20.0
2020-Jan-21 02:56 019 8 gusting 14 20.0
2020-Jan-21 02:50 019 7 gusting 19 20.0
2020-Jan-21 02:46 333 9 gusting 19 20.0
2020-Jan-21 02:40 350 8 gusting 16 20.0
2020-Jan-21 02:35 352 9 gusting 17 20.0
2020-Jan-21 02:32 010 9 gusting 17 20.0
2020-Jan-21 02:25 355 11 gusting 17 20.0
2020-Jan-21 02:20 346 10 gusting 17 20.0
2020-Jan-21 02:19 333 10 gusting 17 20.0
2020-Jan-21 02:11 355 9 gusting 19 20.0
2020-Jan-21 02:05 017 12 gusting 19 20.0
2020-Jan-21 02:02 333 11 gusting 18 20.0
2020-Jan-21 01:55 330 11 gusting 19 20.0
2020-Jan-21 01:50 336 11 gusting 19 19.4
2020-Jan-21 01:49 340 11 gusting 18 19.4
2020-Jan-21 01:40 343 11 gusting 17 19.4
2020-Jan-21 01:36 331 11 gusting 18 19.4
2020-Jan-21 01:31 340 11 gusting 18 19.4
2020-Jan-21 01:26 322 11 gusting 17 19.4
2020-Jan-21 01:20 341 9 gusting 18 19.4
2020-Jan-21 01:18 344 11 gusting 18 19.4
2020-Jan-21 01:10 337 11 gusting 15 18.9
2020-Jan-21 01:06 360 11 gusting 15 18.9
2020-Jan-21 01:01 355 9 gusting 16 18.9
2020-Jan-21 00:55 348 9 gusting 16 18.9
2020-Jan-21 00:50 331 10 gusting 16 18.9
2020-Jan-21 00:46 337 9 gusting 15 18.9
2020-Jan-21 00:40 344 9 gusting 19 18.9
2020-Jan-21 00:35 344 12 gusting 19 18.9
2020-Jan-21 00:33 050 10 gusting 16 18.9
2020-Jan-21 00:25 360 10 gusting 16 18.9
2020-Jan-21 00:20 360 8 gusting 17 19.4
2020-Jan-21 00:16 350 9 gusting 17 19.4
2020-Jan-21 00:10 336 8 gusting 16 19.4
2020-Jan-21 00:05 344 9 gusting 15 19.4
2020-Jan-21 00:02 325 9 gusting 14 19.4
2020-Jan-20 23:55 333 9 gusting 14 19.4
2020-Jan-20 23:50 328 8 gusting 13 19.4
2020-Jan-20 23:47 345 8 gusting 13 19.4
2020-Jan-20 23:40 336 7 gusting 13 18.9
2020-Jan-20 23:35 355 7 gusting 13 18.9
2020-Jan-20 23:32 328 8 gusting 13 19.4
2020-Jan-20 23:26 288 8 gusting 13 19.4
2020-Jan-20 23:20 299 7 gusting 12 19.4
2020-Jan-20 23:17 350 7 gusting 13 19.4
2020-Jan-20 23:10 314 7 gusting 13 19.4
2020-Jan-20 23:05 324 6 gusting 12 19.4
2020-Jan-20 23:03 346 7 gusting 13 19.4
2020-Jan-20 22:55 332 6 gusting 13 19.4
2020-Jan-20 22:50 339 6 gusting 13 19.4
2020-Jan-20 22:47 338 7 gusting 13 19.4
2020-Jan-20 22:40 342 7 gusting 14 20.0
2020-Jan-20 22:36 351 9 gusting 14 20.0
2020-Jan-20 22:31 313 9 gusting 13 20.0
2020-Jan-20 22:25 346 6 gusting 14 20.0
2020-Jan-20 22:20 014 9 gusting 14 20.0
2020-Jan-20 22:16 312 9 gusting 15 20.0
2020-Jan-20 22:10 348 9 gusting 15 20.0
2020-Jan-20 22:05 348 10 gusting 15 20.0
2020-Jan-20 22:04 331 10 gusting 17 20.0
2020-Jan-20 21:55 317 10 gusting 17 20.6
2020-Jan-20 21:51 317 10 gusting 18 20.6
2020-Jan-20 21:46 348 11 gusting 18 20.6
2020-Jan-20 21:40 337 11 gusting 17 21.1
2020-Jan-20 21:35 317 10 gusting 17 21.1
2020-Jan-20 21:31 343 9 gusting 14 21.7
2020-Jan-20 21:25 352 10 gusting 14 21.7
2020-Jan-20 21:20 310 9 gusting 14 21.7
2020-Jan-20 21:16 339 9 gusting 14 21.7
2020-Jan-20 21:10 319 9 gusting 14 21.7
2020-Jan-20 21:05 340 9 gusting 14 21.7
2020-Jan-20 21:02 326 10 gusting 15 21.7
2020-Jan-20 20:55 323 9 gusting 15 21.7
2020-Jan-20 20:50 328 9 gusting 14 21.7
2020-Jan-20 20:48 360 8 gusting 14 21.7
2020-Jan-20 20:40 015 9 gusting 15 21.7
2020-Jan-20 20:35 294 8 gusting 15 21.7
2020-Jan-20 20:32 340 8 gusting 15 21.7
2020-Jan-20 20:26 351 8 gusting 15 21.7
2020-Jan-20 20:20 320 9 gusting 14 22.2
2020-Jan-20 20:17 323 8 gusting 13 22.2
2020-Jan-20 20:10 355 8 gusting 13 22.2
2020-Jan-20 20:05 328 8 gusting 13 22.8
2020-Jan-20 20:02 347 7 gusting 12 22.8
2020-Jan-20 19:55 343 6 gusting 13 23.3
2020-Jan-20 19:50 338 6 gusting 13 23.3
2020-Jan-20 19:47 333 6 gusting 13 23.3
2020-Jan-20 19:40 284 7 gusting 13 23.3
2020-Jan-20 19:35 326 6 gusting 13 23.3
2020-Jan-20 19:32 328 6 gusting 13 23.3
2020-Jan-20 19:25 327 7 gusting 13 23.9
2020-Jan-20 19:20 331 8 gusting 13 23.9
2020-Jan-20 19:16 308 7 gusting 12 23.9
2020-Jan-20 19:10 331 7 gusting 12 23.9
2020-Jan-20 19:05 331 6 gusting 12 23.3
2020-Jan-20 19:02 344 6 gusting 11 22.8
2020-Jan-20 18:55 005 6 gusting 11 22.8
2020-Jan-20 18:50 355 6 gusting 11 22.8
2020-Jan-20 18:47 340 6 gusting 11 23.3
2020-Jan-20 18:40 346 6 gusting 10 23.3
2020-Jan-20 18:35 344 4 gusting 12 22.8
2020-Jan-20 18:31 011 7 gusting 12 22.8
2020-Jan-20 18:25 339 6 gusting 12 23.3
2020-Jan-20 18:21 319 6 gusting 11 23.3
2020-Jan-20 18:16 026 7 gusting 13 23.9
2020-Jan-20 18:10 304 8 gusting 13 23.9
2020-Jan-20 18:05 323 7 gusting 13 23.9
2020-Jan-20 18:01 005 7 gusting 13 23.9
2020-Jan-20 17:55 349 6 gusting 11 23.9
2020-Jan-20 17:50 343 6 gusting 10 23.9
2020-Jan-20 17:46 340 5 gusting 12 23.9
2020-Jan-20 17:40 344 5 gusting 12 23.3
2020-Jan-20 17:37 005 7 gusting 13 23.9
2020-Jan-20 17:32 323 7 gusting 13 23.3
2020-Jan-20 17:25 344 6 gusting 12 22.8
2020-Jan-20 17:20 343 6 gusting 11 22.8
2020-Jan-20 17:16 321 6 gusting 11 22.8
2020-Jan-20 17:10 309 6 gusting 12 22.8
2020-Jan-20 17:05 315 7 gusting 12 22.2
2020-Jan-20 17:01 327 6 gusting 11 22.2
2020-Jan-20 16:55 360 6 gusting 11 22.2
2020-Jan-20 16:50 340 5 gusting 11 22.2
2020-Jan-20 16:46 344 5 gusting 11 22.2
2020-Jan-20 16:40 015 6 gusting 11 22.8
2020-Jan-20 16:36 347 6 gusting 11 22.8
2020-Jan-20 16:32 323 6 gusting 9 22.2
2020-Jan-20 16:25 005 5 gusting 12 22.2
2020-Jan-20 16:20 313 6 gusting 12 22.2
2020-Jan-20 16:17 355 6 gusting 11 22.2
2020-Jan-20 16:10 336 6 gusting 11 22.2
2020-Jan-20 16:06 350 6 gusting 10 22.2
2020-Jan-20 16:02 313 5 gusting 10 22.2
2020-Jan-20 15:55 333 6 gusting 11 22.2
2020-Jan-20 15:50 307 5 gusting 11 22.2
2020-Jan-20 15:47 350 5 gusting 9 21.7
2020-Jan-20 15:40 335 5 gusting 10 21.7
2020-Jan-20 15:35 322 6 gusting 12 21.7
2020-Jan-20 15:32 340 6 gusting 12 21.1
2020-Jan-20 15:25 337 6 gusting 11 21.1
2020-Jan-20 15:20 342 6 gusting 11 21.1
2020-Jan-20 15:16 346 6 gusting 11 21.1
2020-Jan-20 15:10 337 5 gusting 11 21.1
2020-Jan-20 15:06 311 6 gusting 13 21.1
2020-Jan-20 15:03 336 7 gusting 13 21.1
2020-Jan-20 14:55 347 7 gusting 12 21.1
2020-Jan-20 14:50 311 6 gusting 13 21.1
2020-Jan-20 14:47 335 6 gusting 13 21.1
2020-Jan-20 14:40 324 8 gusting 13 21.1
2020-Jan-20 14:35 332 8 gusting 13 21.1
2020-Jan-20 14:31 009 8 gusting 13 21.7
2020-Jan-20 14:25 335 7 gusting 13 21.7
2020-Jan-20 14:20 360 7 gusting 13 21.7
2020-Jan-20 14:19 326 7 gusting 13 21.7
2020-Jan-20 14:10 317 6 gusting 13 21.7
2020-Jan-20 14:06 355 8 gusting 13 21.7
2020-Jan-20 14:02 333 6 gusting 13 21.1
2020-Jan-20 13:56 360 7 gusting 15 21.1
2020-Jan-20 13:50 336 7 gusting 15 21.1
2020-Jan-20 13:47 344 7 gusting 14 21.7
2020-Jan-20 13:40 336 9 gusting 14 21.7
2020-Jan-20 13:35 338 7 gusting 12 21.7
2020-Jan-20 13:31 350 7 gusting 12 21.1
2020-Jan-20 13:26 325 7 gusting 12 21.1
2020-Jan-20 13:20 355 6 gusting 13 21.1
2020-Jan-20 13:16 350 7 gusting 13 21.1
2020-Jan-20 13:10 333 7 gusting 14 21.1
2020-Jan-20 13:06 344 8 gusting 15 21.1
2020-Jan-20 13:03 346 8 gusting 15 21.1
2020-Jan-20 12:56 329 7 gusting 14 21.1
2020-Jan-20 12:50 335 8 gusting 13 21.1
2020-Jan-20 12:47 355 8 gusting 13 21.1
2020-Jan-20 12:40 319 8 gusting 13 21.1
2020-Jan-20 12:36 328 7 gusting 12 21.1
2020-Jan-20 12:33 331 6 gusting 11 21.1
2020-Jan-20 12:25 347 6 gusting 13 21.1
2020-Jan-20 12:20 326 8 gusting 13 21.1
2020-Jan-20 12:17 336 7 gusting 13 21.1
2020-Jan-20 12:10 360 7 gusting 13 21.1
2020-Jan-20 12:05 338 6 gusting 13 21.1
2020-Jan-20 12:02 348 7 gusting 13 21.1
2020-Jan-20 11:56 343 6 gusting 13 21.1
2020-Jan-20 11:51 005 5 gusting 13 21.1
2020-Jan-20 11:46 340 6 gusting 12 21.1
2020-Jan-20 11:41 342 6 gusting 12 21.1
2020-Jan-20 11:35 348 6 gusting 11 21.1
2020-Jan-20 11:32 334 6 gusting 12 21.1
2020-Jan-20 11:26 335 6 gusting 12 21.1
2020-Jan-20 11:20 329 6 gusting 12 21.1
2020-Jan-20 11:16 340 5 gusting 10 21.1
2020-Jan-20 11:10 348 6 gusting 11 21.1
2020-Jan-20 11:05 337 6 gusting 11 21.1
2020-Jan-20 11:01 324 6 gusting 11 21.1
2020-Jan-20 10:56 348 6 gusting 11 21.1
2020-Jan-20 10:50 351 5 gusting 11 21.7
2020-Jan-20 10:46 344 4 gusting 11 21.7
2020-Jan-20 10:40 355 6 gusting 11 21.7
2020-Jan-20 10:35 326 5 gusting 9 21.7
2020-Jan-20 10:32 346 4 gusting 9 21.7
2020-Jan-20 10:25 338 4 gusting 9 21.7
2020-Jan-20 10:20 321 3 gusting 7 21.1
2020-Jan-20 10:17 322 3 gusting 7 21.1
2020-Jan-20 10:10 349 3 gusting 9 21.7
2020-Jan-20 10:05 340 4 gusting 9 21.1
2020-Jan-20 10:01 311 4 gusting 8 21.1
2020-Jan-20 09:56 331 4 gusting 9 21.1
2020-Jan-20 09:50 332 4 gusting 10 21.1
2020-Jan-20 09:46 346 5 gusting 10 21.1
2020-Jan-20 09:41 327 5 gusting 10 21.1
2020-Jan-20 09:35 310 3 gusting 9 21.1
2020-Jan-20 09:32 332 5 gusting 9 21.1
2020-Jan-20 09:26 326 3 gusting 7 21.1
2020-Jan-20 09:20 329 3 gusting 6 21.1
2020-Jan-20 09:17 340 3 gusting 6 21.1
2020-Jan-20 09:10 317 1 gusting 5 20.6
2020-Jan-20 09:06 300 1 gusting 5 20.6
2020-Jan-20 09:01 304 1 gusting 3 20.6
2020-Jan-20 08:55 306 1 gusting 4 20.6
2020-Jan-20 08:51 298 1 gusting 4 20.6
2020-Jan-20 08:47 302 1 gusting 3 20.6
2020-Jan-20 08:40 298 0 gusting 3 20.6
2020-Jan-20 08:35 296 1 gusting 3 20.6
2020-Jan-20 08:32 295 1 gusting 4 20.6
2020-Jan-20 08:25 304 1 gusting 4 20.6
2020-Jan-20 08:20 298 1 gusting 3 20.6
2020-Jan-20 08:16 295 1 gusting 3 20.0
2020-Jan-20 08:10 312 1 gusting 2 20.0
2020-Jan-20 08:05 313 0 gusting 2 20.0
2020-Jan-20 08:02 313 0 gusting 2 20.0
2020-Jan-20 07:55 313 0 gusting 2 20.0
2020-Jan-20 07:50 313 0 gusting 2 20.0
2020-Jan-20 07:47 313 0 gusting 2 20.0
2020-Jan-20 07:40 313 0 gusting 1 20.0
2020-Jan-20 07:35 313 0 gusting 1 20.0
2020-Jan-20 07:32 313 0 gusting 1 20.0
2020-Jan-20 07:26 313 0 gusting 1 20.0
2020-Jan-20 07:21 313 0 gusting 2 20.0
2020-Jan-20 07:17 313 0 gusting 2 20.0
2020-Jan-20 07:11 313 1 gusting 2 20.0
2020-Jan-20 07:05 313 0 gusting 2 20.0
2020-Jan-20 07:01 313 0 gusting 1 20.0
2020-Jan-20 06:55 313 20.0
2020-Jan-20 06:50 313 0 gusting 1 20.0
2020-Jan-20 06:46 313 0 gusting 1 20.0
2020-Jan-20 06:40 313 0 gusting 1 20.0
2020-Jan-20 06:35 313 0 gusting 1 20.0
2020-Jan-20 06:31 313 0 gusting 1 20.0
2020-Jan-20 06:25 313 20.6
2020-Jan-20 06:20 313 20.6
2020-Jan-20 06:16 313 20.6
2020-Jan-20 06:10 20.6
2020-Jan-20 06:05 313 20.6
2020-Jan-20 06:03 313 20.6
2020-Jan-20 05:55 313 20.6
2020-Jan-20 05:50 20.6
2020-Jan-20 05:46 313 0 gusting 1 20.6
2020-Jan-20 05:40 313 20.6
2020-Jan-20 05:36 20.6
2020-Jan-20 05:31 20.6
2020-Jan-20 05:26 313 21.1
2020-Jan-20 05:20 21.1
2020-Jan-20 05:16 21.1
2020-Jan-20 05:11 21.1
2020-Jan-20 05:05 21.1
2020-Jan-20 05:03 21.1
2020-Jan-20 04:55 313 21.1
2020-Jan-20 04:50 21.1
2020-Jan-20 04:47 313 0 gusting 1 21.1
2020-Jan-20 04:40 21.1
2020-Jan-20 04:35 313 21.1
2020-Jan-20 04:32 313 21.1
2020-Jan-20 04:25 313 21.1
2020-Jan-20 04:20 313 0 gusting 2 21.1
2020-Jan-20 04:16 313 0 gusting 2 21.1
2020-Jan-20 04:10 313 0 gusting 2 21.1
2020-Jan-20 04:05 313 0 gusting 1 21.7
2020-Jan-20 04:03 313 0 gusting 1 21.7
2020-Jan-20 03:55 313 0 gusting 1 21.7
2020-Jan-20 03:50 21.7
2020-Jan-20 03:46 313 0 gusting 1 21.7
2020-Jan-20 03:41 313 21.7
2020-Jan-20 03:35 21.7
2020-Jan-20 03:31 313 21.7
2020-Jan-20 03:25 21.7
2020-Jan-20 03:20 21.7
2020-Jan-20 03:16 21.7
2020-Jan-20 03:10 313 0 gusting 3 22.2
2020-Jan-20 03:05 313 0 gusting 3 22.2
2020-Jan-20 03:02 309 0 gusting 2 22.2
2020-Jan-20 02:55 308 0 gusting 2 22.2
2020-Jan-20 02:50 305 0 gusting 2 22.2
2020-Jan-20 02:46 308 0 gusting 1 22.2
2020-Jan-20 02:40 306 22.2
2020-Jan-20 02:35 22.8
2020-Jan-20 02:33 306 22.8
2020-Jan-20 02:26 22.8
2020-Jan-20 02:20 306 0 gusting 2 22.8
2020-Jan-20 02:17 306 0 gusting 2 22.8
2020-Jan-20 02:10 306 0 gusting 3 22.8
2020-Jan-20 02:05 304 0 gusting 3 22.8
2020-Jan-20 02:02 305 0 gusting 3 22.8
2020-Jan-20 01:55 301 0 gusting 2 22.8
2020-Jan-20 01:50 308 22.8
2020-Jan-20 01:46 308 0 gusting 1 22.8
2020-Jan-20 01:41 308 22.8
2020-Jan-20 01:35 22.8
2020-Jan-20 01:31 308 22.8
2020-Jan-20 01:25 308 23.3
2020-Jan-20 01:20 308 23.3
2020-Jan-20 01:16 23.3
2020-Jan-20 01:10 308 0 gusting 3 23.3
2020-Jan-20 01:05 316 0 gusting 5 23.3
2020-Jan-20 01:01 304 1 gusting 5 23.3
2020-Jan-20 00:56 294 1 gusting 4 23.3
2020-Jan-20 00:50 114 23.3
2020-Jan-20 00:46 124 1 gusting 6 23.3
2020-Jan-20 00:41 133 3 gusting 7 23.3
2020-Jan-20 00:36 114 4 gusting 7 23.3
2020-Jan-20 00:31 136 3 gusting 7 23.3
2020-Jan-20 00:25 128 1 gusting 7 23.3
2020-Jan-20 00:20 136 1 gusting 9 23.3
2020-Jan-20 00:17 140 6 gusting 10 23.3
2020-Jan-20 00:10 109 6 gusting 10 23.3
2020-Jan-20 00:05 114 3 gusting 6 23.3
2020-Jan-20 00:02 105 3 gusting 6 23.3
2020-Jan-19 23:55 135 2 gusting 6 23.3
2020-Jan-19 23:50 151 2 gusting 6 23.3
2020-Jan-19 23:46 160 2 gusting 6 23.3
2020-Jan-19 23:40 158 3 gusting 6 23.3
2020-Jan-19 23:37 146 2 gusting 7 23.3
2020-Jan-19 23:31 161 2 gusting 7 23.3
2020-Jan-19 23:25 173 2 gusting 8 23.3
2020-Jan-19 23:20 183 3 gusting 8 23.3
2020-Jan-19 23:17 180 3 gusting 6 23.3
2020-Jan-19 23:11 183 2 gusting 6 23.3
2020-Jan-19 23:05 168 2 gusting 6 23.3
2020-Jan-19 23:01 192 2 gusting 6 23.3
2020-Jan-19 22:56 239 2 gusting 7 23.3
2020-Jan-19 22:51 189 3 gusting 7 23.3
2020-Jan-19 22:48 196 3 gusting 6 23.3
2020-Jan-19 22:41 198 1 gusting 6 23.3
2020-Jan-19 22:35 194 3 gusting 6 23.3
2020-Jan-19 22:34 198 2 gusting 6 23.3
2020-Jan-19 22:26 200 3 gusting 6 23.3
2020-Jan-19 22:21 230 3 gusting 6 23.3
2020-Jan-19 22:16 183 2 gusting 6 23.3
2020-Jan-19 22:11 186 3 gusting 6 23.3
2020-Jan-19 22:06 210 3 gusting 6 23.3
2020-Jan-19 22:01 219 3 gusting 6 23.3
2020-Jan-19 21:55 200 1 gusting 6 23.9
2020-Jan-19 21:50 217 1 gusting 9 23.9
2020-Jan-19 21:46 208 4 gusting 9 23.9
2020-Jan-19 21:40 173 4 gusting 9 23.9
2020-Jan-19 21:35 187 4 gusting 9 23.9
2020-Jan-19 21:32 173 4 gusting 9 23.9
2020-Jan-19 21:25 192 4 gusting 9 23.9
2020-Jan-19 21:20 171 3 gusting 8 23.9
2020-Jan-19 21:16 200 5 gusting 9 23.9
2020-Jan-19 21:10 170 4 gusting 9 23.9
2020-Jan-19 21:06 164 3 gusting 6 23.9
2020-Jan-19 21:01 128 4 gusting 6 23.3
2020-Jan-19 20:55 188 3 gusting 6 23.9
2020-Jan-19 20:50 201 2 gusting 8 23.9
2020-Jan-19 20:48 153 4 gusting 8 23.9
2020-Jan-19 20:40 171 4 gusting 8 23.9
2020-Jan-19 20:35 145 4 gusting 8 23.3
2020-Jan-19 20:32 163 4 gusting 9 23.3
2020-Jan-19 20:26 135 3 gusting 10 23.3
2020-Jan-19 20:20 131 5 gusting 12 23.3
2020-Jan-19 20:16 153 6 gusting 12 23.3
2020-Jan-19 20:11 140 6 gusting 12 23.9
2020-Jan-19 20:05 140 5 gusting 11 23.9
2020-Jan-19 20:03 176 6 gusting 11 23.9
2020-Jan-19 19:55 163 4 gusting 9 23.9
2020-Jan-19 19:50 198 3 gusting 10 23.9
2020-Jan-19 19:46 147 5 gusting 10 23.9
2020-Jan-19 19:40 146 5 gusting 13 23.3
2020-Jan-19 19:35 148 6 gusting 13 23.3
2020-Jan-19 19:33 167 5 gusting 14 23.3
2020-Jan-19 19:25 179 6 gusting 14 23.3
2020-Jan-19 19:21 169 6 gusting 13 23.3
2020-Jan-19 19:17 165 6 gusting 14 23.3
2020-Jan-19 19:11 156 6 gusting 14 23.3
2020-Jan-19 19:05 161 6 gusting 15 23.3
2020-Jan-19 19:02 159 8 gusting 15 23.3
2020-Jan-19 18:55 173 9 gusting 14 23.3
2020-Jan-19 18:51 176 8 gusting 17 23.9
2020-Jan-19 18:46 199 8 gusting 17 23.9
2020-Jan-19 18:40 196 6 gusting 15 24.4
2020-Jan-19 18:35 179 7 gusting 14 24.4
2020-Jan-19 18:33 198 7 gusting 14 23.9
2020-Jan-19 18:25 170 5 gusting 13 23.9
2020-Jan-19 18:20 208 5 gusting 13 23.9
2020-Jan-19 18:17 206 5 gusting 13 23.9
2020-Jan-19 18:10 184 6 gusting 11 23.9
2020-Jan-19 18:06 207 5 gusting 11 23.9
2020-Jan-19 18:01 208 6 gusting 12 23.9
2020-Jan-19 17:55 219 6 gusting 12 23.9
2020-Jan-19 17:50 227 6 gusting 15 23.9
2020-Jan-19 17:46 174 6 gusting 15 24.4
2020-Jan-19 17:40 171 6 gusting 14 25.6
2020-Jan-19 17:35 162 4 gusting 11 26.1
2020-Jan-19 17:31 161 5 gusting 11 25.6
2020-Jan-19 17:25 117 5 gusting 11 25.6
2020-Jan-19 17:20 132 7 gusting 11 25.6
2020-Jan-19 17:19 150 5 gusting 10 25.6
2020-Jan-19 17:10 128 6 gusting 10 25.6
2020-Jan-19 17:05 116 6 gusting 10 26.1
2020-Jan-19 17:02 128 5 gusting 10 26.1
2020-Jan-19 16:55 140 4 gusting 10 26.1
2020-Jan-19 16:51 130 6 gusting 10 26.1
2020-Jan-19 16:47 157 3 gusting 9 26.1
2020-Jan-19 16:40 135 4 gusting 9 25.6
2020-Jan-19 16:36 147 5 gusting 9 26.1
2020-Jan-19 16:33 169 3 gusting 10 26.1
2020-Jan-19 16:25 136 6 gusting 10 26.1
2020-Jan-19 16:20 158 4 gusting 8 26.1
2020-Jan-19 16:17 099 4 gusting 12 26.1
2020-Jan-19 16:10 101 6 gusting 12 25.6
2020-Jan-19 16:05 093 7 gusting 11 25.6
2020-Jan-19 16:02 118 5 gusting 10 26.1
2020-Jan-19 15:55 116 6 gusting 10 26.1
2020-Jan-19 15:50 123 5 gusting 10 25.6
2020-Jan-19 15:48 136 6 gusting 9 25.6
2020-Jan-19 15:40 130 6 gusting 10 25.0
2020-Jan-19 15:35 105 6 gusting 12 25.0
2020-Jan-19 15:32 109 8 gusting 13 25.0
2020-Jan-19 15:25 128 7 gusting 13 25.6
2020-Jan-19 15:20 126 7 gusting 13 26.1
2020-Jan-19 15:16 103 6 gusting 12 26.1
2020-Jan-19 15:10 119 6 gusting 11 26.1
2020-Jan-19 15:05 099 6 gusting 11 25.6
2020-Jan-19 15:01 096 5 gusting 12 25.6
2020-Jan-19 14:55 101 7 gusting 12 25.0
2020-Jan-19 14:51 097 6 gusting 11 25.0
2020-Jan-19 14:46 086 3 gusting 11 24.4
2020-Jan-19 14:40 092 4 gusting 9 23.9
2020-Jan-19 14:35 098 4 gusting 9 23.9
2020-Jan-19 14:31 130 6 gusting 9 23.9
2020-Jan-19 14:25 113 4 gusting 7 23.9
2020-Jan-19 14:20 127 4 gusting 7 23.9
2020-Jan-19 14:17 103 3 gusting 7 23.9
2020-Jan-19 14:10 094 3 gusting 8 23.9
2020-Jan-19 14:05 113 5 gusting 8 23.9
2020-Jan-19 14:02 091 2 gusting 6 23.9
2020-Jan-19 13:55 109 3 gusting 7 23.9
2020-Jan-19 13:50 090 4 gusting 7 23.9
2020-Jan-19 13:47 116 4 gusting 9 23.9
2020-Jan-19 13:40 096 5 gusting 11 23.9
2020-Jan-19 13:35 098 7 gusting 11 23.9
2020-Jan-19 13:32 155 6 gusting 11 23.9
2020-Jan-19 13:26 130 6 gusting 11 23.3
2020-Jan-19 13:20 117 3 gusting 6 23.3
2020-Jan-19 13:16 101 3 gusting 6 23.3
2020-Jan-19 13:10 123 2 gusting 7 23.3
2020-Jan-19 13:05 101 4 gusting 7 23.3
2020-Jan-19 13:03 094 3 gusting 7 23.3
2020-Jan-19 12:55 107 4 gusting 8 22.8
2020-Jan-19 12:50 140 4 gusting 8 22.8
2020-Jan-19 12:47 119 2 gusting 6 22.8
2020-Jan-19 12:40 089 2 gusting 6 22.8
2020-Jan-19 12:35 086 3 gusting 7 22.8
2020-Jan-19 12:31 140 3 gusting 7 22.8
2020-Jan-19 12:25 134 4 gusting 9 22.8
2020-Jan-19 12:20 115 4 gusting 9 22.8
2020-Jan-19 12:16 127 3 gusting 6 22.8
2020-Jan-19 12:10 123 2 gusting 6 22.2
2020-Jan-19 12:06 094 3 gusting 6 22.2
2020-Jan-19 12:01 098 1 gusting 6 22.2
2020-Jan-19 11:56 119 1 gusting 5 21.7
2020-Jan-19 11:50 110 2 gusting 5 21.7
2020-Jan-19 11:46 102 2 gusting 5 21.1
2020-Jan-19 11:41 098 1 gusting 3 21.1
2020-Jan-19 11:35 099 2 gusting 3 21.1
2020-Jan-19 11:31 092 1 gusting 3 20.6
2020-Jan-19 11:25 089 1 gusting 2 20.6
2020-Jan-19 11:21 089 0 gusting 2 20.6
2020-Jan-19 11:16 089 0 gusting 2 21.1
2020-Jan-19 11:10 21.1
2020-Jan-19 11:05 089 1 gusting 3 21.7
2020-Jan-19 11:01 093 1 gusting 5 21.7
2020-Jan-19 10:55 111 2 gusting 6 21.7
2020-Jan-19 10:51 097 2 gusting 6 22.2
2020-Jan-19 10:48 104 1 gusting 5 21.7
2020-Jan-19 10:40 121 1 gusting 6 21.7
2020-Jan-19 10:35 134 2 gusting 6 21.7
2020-Jan-19 10:31 118 3 gusting 6 21.7
2020-Jan-19 10:25 121 3 gusting 6 21.7
2020-Jan-19 10:20 123 1 gusting 6 22.2
2020-Jan-19 10:16 082 3 gusting 6 22.2
2020-Jan-19 10:10 116 3 gusting 6 22.2
2020-Jan-19 10:05 098 3 gusting 6 22.2
2020-Jan-19 10:01 092 2 gusting 7 22.2
2020-Jan-19 09:55 120 3 gusting 7 22.2
2020-Jan-19 09:50 097 3 gusting 7 22.2
2020-Jan-19 09:46 096 3 gusting 8 22.2
2020-Jan-19 09:40 094 4 gusting 8 22.2
2020-Jan-19 09:35 109 4 gusting 8 22.2
2020-Jan-19 09:31 109 3 gusting 7 22.2
2020-Jan-19 09:25 113 4 gusting 7 22.2
2020-Jan-19 09:20 068 4 gusting 7 22.2
2020-Jan-19 09:16 095 4 gusting 7 22.2
2020-Jan-19 09:11 134 3 gusting 6 22.2
2020-Jan-19 09:05 102 3 gusting 7 22.2
2020-Jan-19 09:02 082 4 gusting 7 22.2
2020-Jan-19 08:56 092 4 gusting 7 22.2
2020-Jan-19 08:51 111 4 gusting 8 22.2
2020-Jan-19 08:46 113 4 gusting 9 22.2
2020-Jan-19 08:40 101 4 gusting 9 22.2
2020-Jan-19 08:35 102 4 gusting 9 22.2
2020-Jan-19 08:33 075 5 gusting 7 22.2
2020-Jan-19 08:25 101 5 gusting 8 22.8
2020-Jan-19 08:20 091 4 gusting 8 22.2
2020-Jan-19 08:16 094 4 gusting 8 22.8
2020-Jan-19 08:10 083 5 gusting 11 22.8
2020-Jan-19 08:05 117 6 gusting 11 22.8
2020-Jan-19 08:01 103 6 gusting 9 22.8
2020-Jan-19 07:55 113 6 gusting 9 22.8
2020-Jan-19 07:50 093 6 gusting 9 22.8
2020-Jan-19 07:46 099 5 gusting 10 22.8
2020-Jan-19 07:41 100 6 gusting 10 22.8
2020-Jan-19 07:35 140 4 gusting 10 22.8
2020-Jan-19 07:32 134 4 gusting 10 22.8
2020-Jan-19 07:25 119 4 gusting 10 23.3
2020-Jan-19 07:21 091 5 gusting 10 23.3
2020-Jan-19 07:17 155 6 gusting 10 23.3
2020-Jan-19 07:10 095 5 gusting 10 22.8
2020-Jan-19 07:05 149 6 gusting 13 22.8
2020-Jan-19 07:02 126 6 gusting 13 22.8
2020-Jan-19 06:55 130 6 gusting 11 22.8
2020-Jan-19 06:50 128 6 gusting 10 22.8
2020-Jan-19 06:46 086 5 gusting 10 22.8
2020-Jan-19 06:40 109 3 gusting 11 22.8
2020-Jan-19 06:36 121 6 gusting 12 22.8
2020-Jan-19 06:31 121 6 gusting 13 22.8
2020-Jan-19 06:25 110 6 gusting 13 22.8
2020-Jan-19 06:20 126 6 gusting 11 22.8
2020-Jan-19 06:17 129 6 gusting 10 22.8
2020-Jan-19 06:10 203 5 gusting 12 22.8
2020-Jan-19 06:05 085 7 gusting 12 22.8
2020-Jan-19 06:02 095 6 gusting 12 22.8